KI5QWQ Weather Reports


time (UTC)temp
F
wind
direction
speed
knots
gust
knots
rain 1hr
in
rain 24hr
in
rain mn
in
humidity
%
barometer
mb
20260904212208 0 227 1.7 4.3 0.00 0.01 0.01 1015.6
20260904211707 0 227 1.7 4.3 0.00 0.01 0.01 1015.7
20260904211203 0 227 1.7 4.3 0.00 0.01 0.01 1015.5
20260904210657 0 235 2.6 3.5 0.00 0.01 0.01 1015.7
20260904210152 0 235 2.6 3.5 0.00 0.01 0.01 1015.8
20260904205648 0 209 2.6 4.3 0.00 0.01 0.01 1015.8
20260904205144 0 157 2.6 4.3 0.00 0.01 0.01 1015.8
20260904204640 0 227 2.6 3.5 0.00 0.01 0.01 1015.7
20260904204136 0 224 2.6 3.5 0.00 0.01 0.01 1015.9
20260904203632 0 167 3.5 5.2 0.00 0.01 0.01 1015.9
20260904203128 0 212 2.6 3.5 0.00 0.01 0.01 1016.1
20260904202624 0 212 2.6 3.5 0.00 0.01 0.01 1016.1
20260904202120 0 212 2.6 3.5 0.00 0.01 0.01 1016.2
20260904201620 0 212 2.6 4.3 0.00 0.01 0.01 1016.2
20260904201115 0 152 3.5 7.0 0.00 0.01 0.01 1016.2
20260904200609 0 229 2.6 4.3 0.00 0.01 0.01 1016.6
20260904200104 0 227 2.6 2.6 0.00 0.01 0.01 1016.4
20260904195603 0 213 2.6 3.5 0.00 0.01 0.01 1016.4
20260904195101 0 235 2.6 3.5 0.00 0.01 0.01 1016.5
20260904194556 0 212 1.7 3.5 0.00 0.01 0.01 1016.5
20260904194051 0 212 1.7 3.5 0.00 0.01 0.01 1016.6
20260904193546 0 236 1.7 4.3 0.00 0.01 0.01 1016.8
20260904193043 0 260 1.7 2.6 0.00 0.01 0.01 1016.8
20260904192542 0 160 4.3 5.2 0.00 0.01 0.01 1016.8
20260904192038 0 221 1.7 2.6 0.00 0.01 0.01 1016.8
20260904191535 0 214 1.7 1.7 0.00 0.01 0.01 1016.8
20260904191031 0 208 1.7 2.6 0.00 0.01 0.01 1017.0
20260904190526 0 185 3.5 5.2 0.00 0.01 0.01 1017.3
20260904190022 0 191 2.6 5.2 0.00 0.01 0.01 1017.2
20260904185518 0 177 3.5 4.3 0.00 0.01 0.01 1017.2
20260904185012 0 177 3.5 4.3 0.00 0.01 0.01 1017.3
20260904184507 0 157 3.5 5.2 0.00 0.01 0.01 1017.5
20260904184002 0 157 3.5 5.2 0.00 0.01 0.01 1017.3
20260904183457 0 190 2.6 4.3 0.00 0.01 0.01 1017.4
20260904182952 0 224 1.7 2.6 0.00 0.01 0.01 1017.3
20260904182448 0 224 1.7 2.6 0.00 0.01 0.01 1017.4
20260904181947 0 211 1.7 3.5 0.00 0.01 0.01 1017.5
20260904181443 0 211 1.7 3.5 0.00 0.01 0.01 1017.5
20260904180938 0 158 1.7 3.5 0.00 0.01 0.01 1017.5
20260904180433 0 211 1.7 2.6 0.00 0.01 0.01 1017.8
20260904175932 0 209 1.7 2.6 0.00 0.01 0.01 1017.9
20260904175432 0 146 5.2 5.2 0.00 0.01 0.01 1018.0
20260904174926 0 260 0.0 1.7 0.00 0.01 0.01 1017.9
20260904174421 0 260 0.0 1.7 0.00 0.01 0.01 1018.1
20260904173918 0 42 0.0 2.6 0.00 0.01 0.01 1018.1
20260904173413 0 196 1.7 2.6 0.00 0.01 0.01 1018.1
20260904172908 0 177 1.7 1.7 0.00 0.01 0.01 1018.1
20260904172402 0 136 3.5 6.1 0.00 0.01 0.01 1018.2
20260904171857 0 178 2.6 6.1 0.00 0.01 0.01 1018.1
20260904171352 0 208 0.9 1.7 0.00 0.01 0.01 1018.3
20260904170849 0 162 4.3 4.3 0.00 0.01 0.01 1018.3
20260904170344 0 162 4.3 4.3 0.00 0.01 0.01 1018.3
20260904165838 0 273 1.7 2.6 0.00 0.01 0.01 1018.3
20260904165337 0 218 2.6 6.1 0.00 0.01 0.01 1018.2
20260904164827 0 190 1.7 6.1 0.00 0.01 0.01 1018.2
20260904164326 0 141 3.5 4.3 0.00 0.01 0.01 1018.2
20260904163824 0 182 3.5 5.2 0.00 0.01 0.01 1018.2
20260904163323 0 204 1.7 4.3 0.00 0.01 0.01 1018.2
20260904162822 0 208 1.7 2.6 0.00 0.01 0.01 1018.2
20260904162318 0 208 1.7 2.6 0.00 0.01 0.01 1018.2
20260904161814 0 212 1.7 2.6 0.00 0.01 0.01 1018.2
20260904161314 0 212 1.7 2.6 0.00 0.01 0.01 1018.3
20260904160809 0 227 1.7 2.6 0.00 0.01 0.01 1018.1
20260904160304 0 227 1.7 2.6 0.00 0.01 0.01 1018.1
20260904155758 0 227 1.7 2.6 0.00 0.01 0.01 1018.2
20260904155259 0 227 1.7 2.6 0.00 0.01 0.01 1018.2
20260904154757 0 227 1.7 2.6 0.00 0.01 0.01 1018.2
20260904154252 0 227 1.7 2.6 0.00 0.01 0.01 1018.2
20260904153748 0 221 1.7 3.5 0.00 0.01 0.01 1018.1
20260904153243 0 236 1.7 2.6 0.00 0.01 0.01 1018.2
20260904152739 0 200 2.6 3.5 0.00 0.01 0.01 1018.3
20260904152234 0 200 2.6 3.5 0.00 0.01 0.01 1018.0
20260904151729 0 200 2.6 3.5 0.00 0.01 0.01 1018.1
20260904151228 0 238 2.6 3.5 0.05 0.01 0.01 1018.0
20260904150724 0 245 1.7 2.6 0.05 0.01 0.01 1017.9
20260904150219 0 247 1.7 3.5 0.00 0.00 0.00 1017.9
20260904145717 0 247 1.7 3.5 0.00 0.00 0.00 1018.0
20260904145213 0 247 1.7 3.5 0.00 0.00 0.00 1018.0
20260904144708 0 247 1.7 3.5 0.00 0.00 0.00 1018.0
20260904144204 0 216 2.6 2.6 0.00 0.00 0.00 1018.2
20260904143659 0 216 2.6 2.6 0.00 0.00 0.00 1017.9
20260904143156 0 216 2.6 2.6 0.00 0.00 0.00 1018.0
20260904142652 0 216 2.6 2.6 0.00 0.00 0.00 1017.9
20260904142148 0 216 2.6 2.6 0.00 0.00 0.00 1018.1
20260904141642 0 224 0.9 1.7 0.00 0.00 0.00 1017.9
20260904141138 0 224 0.9 1.7 0.00 0.00 0.00 1017.9
20260904140633 0 224 0.9 1.7 0.00 0.00 0.00 1017.6
20260904140127 0 224 0.9 1.7 0.00 0.00 0.00 1017.9
20260904135621 0 225 2.6 3.5 0.00 0.00 0.00 1017.9
20260904135117 0 225 2.6 3.5 0.00 0.00 0.00 1018.0
20260904134613 0 255 1.7 2.6 0.00 0.00 0.00 1018.0
20260904134112 0 255 1.7 2.6 0.00 0.00 0.00 1017.6
20260904133607 0 249 0.0 0.9 0.00 0.00 0.00 1017.5
20260904133103 0 220 1.7 2.6 0.00 0.00 0.00 1017.6
20260904132602 0 231 0.9 1.7 0.00 0.00 0.00 1017.3
20260904132057 0 231 0.9 1.7 0.00 0.00 0.00 1017.5
20260904131551 0 231 0.9 1.7 0.00 0.00 0.00 1017.5
20260904131047 0 231 0.9 1.7 0.00 0.00 0.00 1017.8
20260904130546 0 231 1.7 1.7 0.00 0.00 0.00 1017.6
20260904130041 0 244 0.9 1.7 0.00 0.00 0.00 1017.5
20260904125538 0 230 0.0 0.9 0.00 0.00 0.00 1017.9
20260904125032 0 227 0.9 0.9 0.00 0.00 0.00 1017.8
20260904124528 0 242 0.0 0.9 0.00 0.00 0.00 1017.6
20260904124023 0 253 0.9 1.7 0.00 0.00 0.00 1017.8
20260904123523 0 220 0.0 0.9 0.00 0.00 0.00 1017.9
20260904123018 0 220 0.0 0.9 0.00 0.00 0.00 1017.9
20260904122513 0 236 0.9 1.7 0.00 0.00 0.00 1017.9
20260904122008 0 175 1.7 1.7 0.00 0.00 0.00 1017.8
20260904121503 0 259 0.0 1.7 0.00 0.00 0.00 1017.6
20260904120959 0 187 0.9 1.7 0.00 0.00 0.00 1017.6
20260904120455 0 171 1.7 1.7 0.00 0.00 0.00 1017.4
20260904115949 0 180 0.9 1.7 0.00 0.00 0.00 1017.4
20260904115446 0 170 2.6 2.6 0.00 0.00 0.00 1017.1
20260904114945 0 125 2.6 3.5 0.00 0.00 0.00 1017.2
20260904114440 0 176 0.9 2.6 0.00 0.00 0.00 1017.1
20260904113936 0 202 1.7 2.6 0.00 0.00 0.00 1017.1
20260904113434 0 133 0.0 2.6 0.00 0.00 0.00 1016.9
20260904112928 0 138 4.3 5.2 0.00 0.00 0.00 1016.7
20260904112424 0 147 0.9 2.6 0.00 0.00 0.00 1016.7
20260904111920 0 213 0.0 1.7 0.00 0.00 0.00 1016.6
20260904111415 0 178 1.7 2.6 0.00 0.00 0.00 1016.6
20260904110911 0 106 2.6 3.5 0.00 0.00 0.00 1016.6
20260904110409 0 188 0.9 1.7 0.00 0.00 0.00 1016.6
20260904105905 0 184 1.7 3.5 0.00 0.00 0.00 1016.6
20260904105400 0 165 1.7 4.3 0.00 0.00 0.00 1016.6
20260904104855 0 202 0.0 0.9 0.00 0.00 0.00 1016.4
20260904104350 0 147 1.7 2.6 0.00 0.00 0.00 1016.6
20260904103847 0 207 1.7 4.3 0.00 0.00 0.00 1016.5
20260904103347 0 168 0.9 3.5 0.00 0.00 0.00 1016.4
20260904102843 0 217 0.0 1.7 0.00 0.00 0.00 1016.4
20260904102338 0 269 0.0 3.5 0.00 0.00 0.00 1016.6
20260904101834 0 161 1.7 2.6 0.00 0.00 0.00 1016.4
20260904101330 0 217 0.0 0.9 0.00 0.00 0.00 1016.4
20260904100825 0 209 0.0 2.6 0.00 0.00 0.00 1016.3
20260904100321 0 161 2.6 6.1 0.00 0.00 0.00 1016.3
20260904095816 0 206 1.7 2.6 0.00 0.00 0.00 1016.0
20260904095310 0 214 0.9 2.6 0.00 0.00 0.00 1016.2
20260904094806 0 215 0.9 3.5 0.00 0.00 0.00 1016.0
20260904094300 0 158 0.9 2.6 0.00 0.00 0.00 1016.0
20260904093756 0 197 1.7 2.6 0.00 0.00 0.00 1016.2
20260904093251 0 227 1.7 2.6 0.00 0.00 0.00 1016.2
20260904092746 0 180 0.9 3.5 0.00 0.00 0.00 1016.1
20260904092243 0 192 1.7 4.3 0.00 0.00 0.00 1016.1
20260904091739 0 209 0.0 2.6 0.00 0.00 0.00 1016.1
20260904091233 0 176 2.6 3.5 0.00 0.00 0.00 1016.1
20260904090729 0 220 1.7 3.5 0.00 0.00 0.00 1016.0
20260904090225 0 117 1.7 2.6 0.00 0.00 0.00 1016.1
20260904085725 0 196 1.7 2.6 0.00 0.00 0.00 1016.1
20260904085220 0 238 1.7 2.6 0.00 0.00 0.00 1016.3
20260904084714 0 195 2.6 3.5 0.00 0.00 0.00 1016.3
20260904084211 0 191 0.0 1.7 0.00 0.00 0.00 1016.2
20260904083707 0 190 0.0 2.6 0.00 0.00 0.00 1016.2
20260904083204 0 217 1.7 2.6 0.00 0.00 0.00 1016.2
20260904082703 0 219 1.7 3.5 0.00 0.00 0.00 1016.3
20260904082158 0 187 0.9 2.6 0.00 0.00 0.00 1016.1
20260904081654 0 136 1.7 3.5 0.00 0.00 0.00 1016.5
20260904081149 0 185 1.7 3.5 0.00 0.00 0.00 1016.4
20260904080644 0 188 0.0 2.6 0.00 0.00 0.00 1016.4
20260904080140 0 201 1.7 3.5 0.00 0.00 0.00 1016.3
20260904075637 0 240 1.7 5.2 0.00 0.00 0.00 1016.0
20260904075131 0 217 2.6 2.6 0.00 0.00 0.00 1016.0
20260904074625 0 218 1.7 7.8 0.00 0.00 0.00 1016.1
20260904074120 0 226 0.9 7.0 0.00 0.00 0.00 1016.2
20260904073614 0 219 2.6 4.3 0.00 0.00 0.00 1016.3
20260904073111 0 203 2.6 6.1 0.00 0.00 0.00 1016.2
20260904072606 0 167 0.0 2.6 0.00 0.00 0.00 1016.2
20260904072101 0 158 1.7 2.6 0.00 0.00 0.00 1016.3
20260904071557 0 214 0.0 4.3 0.00 0.00 0.00 1016.5
20260904071052 0 220 1.7 2.6 0.00 0.00 0.00 1016.5
20260904070550 0 148 4.3 4.3 0.00 0.00 0.00 1016.5
20260904070046 0 215 2.6 5.2 0.00 0.00 0.00 1016.4
20260904065540 0 191 1.7 2.6 0.00 0.00 0.00 1016.7
20260904065037 0 139 2.6 4.3 0.00 0.00 0.00 1016.5
20260904064533 0 208 2.6 5.2 0.00 0.00 0.00 1016.5
20260904064026 0 176 1.7 3.5 0.00 0.00 0.00 1016.6
20260904063523 0 207 1.7 3.5 0.00 0.00 0.00 1016.7
20260904063018 0 163 2.6 4.3 0.00 0.00 0.00 1016.4
20260904062514 0 219 1.7 2.6 0.00 0.00 0.00 1016.5
20260904062010 0 191 0.9 5.2 0.00 0.00 0.00 1016.5
20260904061505 0 235 0.9 2.6 0.00 0.00 0.00 1016.5
20260904061002 0 226 0.9 2.6 0.00 0.00 0.00 1016.5
20260904060457 0 210 1.7 1.7 0.00 0.00 0.00 1016.6
20260904055953 0 140 3.5 6.1 0.00 0.00 0.00 1016.4
20260904055448 0 196 0.9 5.2 0.00 0.00 0.00 1016.4
20260904054944 0 262 1.7 4.3 0.00 0.00 0.00 1016.4
20260904054439 0 224 0.0 2.6 0.00 0.00 0.00 1016.4
20260904053935 0 218 0.9 2.6 0.00 0.00 0.00 1016.4
20260904053434 0 279 1.7 4.3 0.00 0.00 0.00 1016.4
20260904052930 0 205 3.5 7.0 0.00 0.00 0.00 1016.6
20260904052426 0 137 1.7 4.3 0.00 0.00 0.00 1016.3
20260904051922 0 189 1.7 7.0 0.00 0.00 0.00 1016.4
20260904051418 0 160 1.7 6.1 0.00 0.00 0.00 1016.3
20260904050912 0 141 1.7 4.3 0.00 0.00 0.00 1016.4
20260904050409 0 188 1.7 6.1 0.00 0.00 0.00 1016.3
20260904045908 0 202 3.5 6.1 0.00 0.00 0.00 1016.4
20260904045404 0 173 2.6 5.2 0.00 0.00 0.00 1016.3
20260904044903 0 196 1.7 5.2 0.00 0.00 0.00 1016.2
20260904044400 0 154 2.6 5.2 0.00 0.00 0.00 1016.3
20260904043856 0 206 1.7 4.3 0.00 0.00 0.00 1016.3
20260904043352 0 181 1.7 3.5 0.00 0.00 0.00 1016.4
20260904042848 0 179 0.9 3.5 0.00 0.00 0.00 1016.4
20260904042343 0 184 1.7 3.5 0.00 0.00 0.00 1016.4
20260904041838 0 201 2.6 3.5 0.00 0.00 0.00 1016.3
20260904041334 0 212 1.7 2.6 0.00 0.00 0.00 1016.2
20260904040830 0 166 2.6 6.1 0.00 0.00 0.00 1016.2
20260904040325 0 156 5.2 8.7 0.00 0.00 0.00 1016.3
20260904035821 0 173 1.7 2.6 0.00 0.00 0.00 1016.4
20260904035317 0 182 2.6 3.5 0.00 0.00 0.00 1016.4
20260904034815 0 195 1.7 2.6 0.00 0.00 0.00 1016.0
20260904034311 0 166 2.6 4.3 0.00 0.00 0.00 1016.0
20260904033807 0 219 1.7 4.3 0.00 0.00 0.00 1016.0
20260904033304 0 143 2.6 7.0 0.00 0.00 0.00 1016.0
20260904032759 0 143 2.6 7.0 0.00 0.00 0.00 1016.1
20260904032259 0 200 3.5 3.5 0.00 0.00 0.00 1015.9
20260904031753 0 125 4.3 6.1 0.00 0.00 0.00 1016.0
20260904031249 0 160 0.9 4.3 0.00 0.00 0.00 1015.8
20260904030744 0 186 2.6 2.6 0.00 0.00 0.00 1015.8
20260904030239 0 174 4.3 6.1 0.00 0.00 0.00 1015.8
20260904025736 0 195 1.7 2.6 0.00 0.00 0.00 1015.8
20260904025230 0 190 1.7 2.6 0.00 0.00 0.00 1015.8
20260904024720 0 177 2.6 4.3 0.00 0.00 0.00 1015.8
20260904024216 0 119 1.7 5.2 0.00 0.00 0.00 1015.7
20260904023712 0 155 1.7 2.6 0.00 0.00 0.00 1015.7
20260904023207 0 186 4.3 7.8 0.00 0.00 0.00 1015.5
20260904022701 0 165 1.7 1.7 0.00 0.00 0.00 1015.5
20260904022158 0 135 1.7 3.5 0.00 0.00 0.00 1015.6
20260904021654 0 199 1.7 3.5 0.00 0.00 0.00 1015.0
20260904021148 0 202 0.9 2.6 0.00 0.00 0.00 1015.0
20260904020645 0 168 1.7 3.5 0.00 0.00 0.00 1015.0
20260904020139 0 139 1.7 4.3 0.00 0.00 0.00 1015.0
20260904015638 0 139 1.7 4.3 0.00 0.00 0.00 1015.0
20260904015137 0 171 1.7 4.3 0.00 0.00 0.00 1015.0
20260904014636 0 211 1.7 6.1 0.00 0.00 0.00 1014.9
20260904014132 0 156 2.6 6.1 0.00 0.00 0.00 1014.9
20260904013629 0 174 2.6 7.0 0.00 0.00 0.00 1015.0
20260904013124 0 157 3.5 7.0 0.00 0.00 0.00 1015.0
20260904012620 0 191 3.5 7.0 0.00 0.00 0.00 1015.0
20260904012119 0 203 0.0 2.6 0.00 0.00 0.00 1014.8
20260904011618 0 183 1.7 2.6 0.00 0.00 0.00 1014.8
20260904011114 0 139 2.6 3.5 0.00 0.00 0.00 1014.8
20260904010609 0 152 2.6 4.3 0.00 0.00 0.00 1014.7
20260904010106 0 77 0.0 6.1 0.00 0.00 0.00 1014.7
20260904005600 0 205 0.9 8.7 0.00 0.00 0.00 1014.5
20260904005055 0 132 3.5 4.3 0.00 0.00 0.00 1014.5
20260904004551 0 182 2.6 7.8 0.00 0.00 0.00 1014.8
20260904004046 0 144 2.6 4.3 0.00 0.00 0.00 1014.7
20260904003542 0 173 0.0 6.1 0.00 0.00 0.00 1014.6
20260904003038 0 180 2.6 7.8 0.00 0.00 0.00 1014.6
20260904002533 0 189 2.6 11.3 0.00 0.00 0.00 1014.6
20260904002033 0 185 1.7 7.0 0.00 0.00 0.00 1014.4
20260904001529 0 168 1.7 7.0 0.00 0.00 0.00 1014.6
20260904001028 0 190 1.7 9.6 0.00 0.00 0.00 1014.5
20260904000527 0 194 3.5 7.8 0.00 0.00 0.00 1014.4
20260904000024 0 187 2.6 5.2 0.00 0.00 0.00 1014.3
20260903235518 0 165 1.7 7.0 0.00 0.00 0.00 1014.5
20260903235014 0 186 3.5 7.8 0.00 0.00 0.00 1014.4
20260903234509 0 169 2.6 7.8 0.00 0.00 0.00 1014.6
20260903234005 0 143 1.7 7.8 0.00 0.00 0.00 1014.3
20260903233501 0 186 2.6 7.0 0.00 0.00 0.00 1014.2
20260903232955 0 133 5.2 8.7 0.00 0.00 0.00 1014.1
20260903232451 0 196 2.6 9.6 0.00 0.00 0.00 1014.1
20260903231950 0 160 3.5 7.8 0.00 0.00 0.00 1014.2
20260903231445 0 179 2.6 11.3 0.00 0.00 0.00 1014.2
20260903230940 0 163 0.9 8.7 0.00 0.00 0.00 1013.9
20260903230436 0 117 4.3 7.0 0.00 0.00 0.00 1014.0
20260903225932 0 191 3.5 10.4 0.00 0.00 0.00 1014.0
20260903225427 0 158 1.7 7.0 0.00 0.00 0.00 1013.8
20260903224924 0 156 3.5 4.3 0.00 0.00 0.00 1013.6
20260903224419 0 171 2.6 5.2 0.00 0.00 0.00 1013.6
20260903223915 0 187 3.5 7.0 0.00 0.00 0.00 1013.6
20260903223414 0 128 3.5 3.5 0.00 0.00 0.00 1013.7
20260903222913 0 232 3.5 5.2 0.00 0.00 0.00 1013.6
20260903222409 0 165 1.7 2.6 0.00 0.00 0.00 1013.8
20260903221903 0 180 2.6 4.3 0.00 0.00 0.00 1013.7
20260903221401 0 162 3.5 7.8 0.00 0.00 0.00 1013.7
20260903220900 0 114 1.7 6.1 0.00 0.00 0.00 1013.6
20260903220349 0 128 3.5 6.1 0.00 0.00 0.00 1013.6
20260903215847 0 128 3.5 6.1 0.00 0.00 0.00 1013.6
20260903215343 0 145 1.7 3.5 0.00 0.00 0.00 1013.6
20260903214841 0 145 1.7 3.5 0.00 0.00 0.00 1013.6
20260903214332 0 145 1.7 3.5 0.00 0.00 0.00 1013.6
20260903213826 0 166 3.5 7.0 0.00 0.00 0.00 1013.8
20260903213321 0 180 3.5 4.3 0.00 0.00 0.00 1013.8
20260903212817 0 193 3.5 4.3 0.00 0.00 0.00 1013.8